When you browse on this site, cookies collect data to enhance your experience and personalize the content and advertising you see.
Visit our Privacy Policy to learn more. By continuing to use the site, you agree to this use of cookies and data.
  • In Hungary
  • List of Countries
  • For 7 days
  • Water Temperature
  • Weather Map
  • News
  • Weather Widgets
  • user-avatar
    Login

    Hourly Weather Lago de Yojoa

    Today, 17 November, Sunday

    Time Temperature Precipitation Wind Pressure Humidity
    00:00 +18°C° 0.1 mm 0 mps 703 mmHg 98%
    01:00 +18°C° 0.3 mm 0 mps 703 mmHg 98%
    02:00 +18°C° 0.3 mm 0 mps 702 mmHg 98%
    03:00 +18°C° 0.3 mm 0 mps 702 mmHg 98%
    04:00 +18°C° 0.2 mm 0 mps 702 mmHg 98%
    05:00 +18°C° 0.2 mm 0 mps 703 mmHg 98%
    06:00 +18°C° 0.2 mm 0 mps 703 mmHg 98%
    07:00 +21°C° 0.1 mm 1 mps 703 mmHg 96%
    08:00 +22°C° 0.1 mm 1 mps 704 mmHg 94%
    09:00 +22°C° 0.1 mm 1 mps 704 mmHg 92%
    10:00 +23°C° 0.3 mm 1 mps 703 mmHg 91%
    11:00 +23°C° 0.3 mm 1 mps 703 mmHg 89%
    12:00 +24°C° 0.3 mm 1 mps 703 mmHg 87%
    13:00 +23°C° 0.2 mm 1 mps 702 mmHg 87%
    14:00 +23°C° 0.2 mm 1 mps 701 mmHg 86%
    15:00 +23°C° 0.2 mm 1 mps 701 mmHg 86%
    16:00 +22°C° 0.1 mm 1 mps 701 mmHg 90%
    17:00 +21°C° 0.1 mm 1 mps 701 mmHg 94%
    18:00 +20°C° 0.1 mm 1 mps 702 mmHg 98%
    19:00 +20°C° 0 mm 1 mps 702 mmHg 98%
    20:00 +18°C° 0 mm 0 mps 702 mmHg 98%
    21:00 +17°C° 0 mm 0 mps 703 mmHg 98%
    22:00 +17°C° 0 mm 0 mps 703 mmHg 98%
    23:00 +17°C° 0 mm 0 mps 703 mmHg 98%

    Tomorrow, 18 November, Monday

    Time Temperature Precipitation Wind Pressure Humidity
    00:00 +17°C° 0 mm 0 mps 702 mmHg 98%
    01:00 +17°C° 0 mm 0 mps 702 mmHg 98%
    02:00 +17°C° 0 mm 0 mps 702 mmHg 98%
    03:00 +17°C° 0 mm 0 mps 702 mmHg 97%
    04:00 +17°C° 0 mm 0 mps 702 mmHg 97%
    05:00 +17°C° 0 mm 0 mps 702 mmHg 97%
    06:00 +17°C° 0 mm 0 mps 703 mmHg 97%
    07:00 +18°C° 0.1 mm 0 mps 703 mmHg 93%
    08:00 +19°C° 0.1 mm 0 mps 704 mmHg 89%
    09:00 +22°C° 0.1 mm 1 mps 704 mmHg 85%
    10:00 +24°C° 0.1 mm 1 mps 704 mmHg 78%
    11:00 +25°C° 0.1 mm 1 mps 703 mmHg 71%
    12:00 +26°C° 0.1 mm 1 mps 703 mmHg 64%
    13:00 +26°C° 0.1 mm 1 mps 702 mmHg 66%
    14:00 +25°C° 0.1 mm 2 mps 702 mmHg 69%
    15:00 +25°C° 0.1 mm 2 mps 701 mmHg 72%
    16:00 +23°C° 0 mm 1 mps 701 mmHg 80%
    17:00 +21°C° 0 mm 1 mps 701 mmHg 88%
    18:00 +20°C° 0 mm 1 mps 702 mmHg 97%
    19:00 +17°C° 0 mm 0 mps 702 mmHg 97%
    20:00 +17°C° 0 mm 0 mps 702 mmHg 98%
    21:00 +16°C° 0 mm 0 mps 703 mmHg 99%
    22:00 +17°C° 0 mm 0 mps 703 mmHg 98%
    23:00 +17°C° 0 mm 0 mps 703 mmHg 98%

    Day after tomorrow, 19 November, Tuesday

    Time Temperature Precipitation Wind Pressure Humidity
    00:00 +17°C° 0 mm 0 mps 703 mmHg 98%
    01:00 +17°C° 0 mm 0 mps 703 mmHg 97%
    02:00 +16°C° 0 mm 0 mps 702 mmHg 97%
    03:00 +16°C° 0 mm 0 mps 702 mmHg 97%
    04:00 +16°C° 0 mm 0 mps 702 mmHg 97%
    05:00 +16°C° 0 mm 0 mps 702 mmHg 97%
    06:00 +15°C° 0 mm 0 mps 703 mmHg 97%
    07:00 +17°C° 0 mm 0 mps 703 mmHg 90%
    08:00 +19°C° 0 mm 0 mps 704 mmHg 83%
    09:00 +21°C° 0 mm 0 mps 705 mmHg 77%
    10:00 +24°C° 0 mm 1 mps 704 mmHg 71%
    11:00 +25°C° 0 mm 1 mps 704 mmHg 65%
    12:00 +26°C° 0 mm 1 mps 704 mmHg 59%
    13:00 +26°C° 0 mm 1 mps 703 mmHg 60%
    14:00 +26°C° 0 mm 2 mps 703 mmHg 62%
    15:00 +26°C° 0 mm 2 mps 702 mmHg 63%
    16:00 +24°C° 0 mm 1 mps 702 mmHg 74%
    17:00 +22°C° 0 mm 1 mps 703 mmHg 85%
    18:00 +20°C° 0 mm 1 mps 703 mmHg 96%
    19:00 +17°C° 0 mm 0 mps 703 mmHg 97%
    20:00 +17°C° 0 mm 0 mps 704 mmHg 98%
    21:00 +16°C° 0 mm 0 mps 704 mmHg 98%
    22:00 +16°C° 0 mm 0 mps 704 mmHg 98%
    23:00 +16°C° 0 mm 0 mps 704 mmHg 98%

    20 November, Wednesday

    Time Temperature Precipitation Wind Pressure Humidity
    00:00 +16°C° 0 mm 0 mps 704 mmHg 98%
    01:00 +16°C° 0 mm 0 mps 704 mmHg 98%
    02:00 +16°C° 0 mm 0 mps 703 mmHg 97%
    03:00 +16°C° 0 mm 0 mps 703 mmHg 97%
    04:00 +16°C° 0 mm 0 mps 703 mmHg 97%
    05:00 +16°C° 0 mm 0 mps 704 mmHg 96%
    06:00 +16°C° 0 mm 0 mps 704 mmHg 96%
    07:00 +18°C° 0 mm 0 mps 705 mmHg 88%
    08:00 +20°C° 0 mm 0 mps 705 mmHg 79%
    09:00 +22°C° 0 mm 0 mps 706 mmHg 71%
    10:00 +23°C° 0 mm 0 mps 705 mmHg 66%
    11:00 +27°C° 0 mm 1 mps 705 mmHg 61%
    12:00 +28°C° 0 mm 1 mps 704 mmHg 56%
    13:00 +27°C° 0 mm 1 mps 704 mmHg 58%
    14:00 +27°C° 0 mm 2 mps 703 mmHg 61%
    15:00 +27°C° 0 mm 2 mps 703 mmHg 63%
    16:00 +25°C° 0 mm 1 mps 703 mmHg 74%
    17:00 +23°C° 0 mm 1 mps 703 mmHg 85%
    18:00 +21°C° 0 mm 1 mps 703 mmHg 96%
    19:00 +18°C° 0 mm 0 mps 703 mmHg 97%
    20:00 +18°C° 0 mm 0 mps 704 mmHg 98%
    21:00 +18°C° 0 mm 0 mps 704 mmHg 98%
    22:00 +18°C° 0 mm 0 mps 704 mmHg 98%
    23:00 +18°C° 0 mm 0 mps 704 mmHg 97%

    21 November, Thursday

    Time Temperature Precipitation Wind Pressure Humidity
    00:00 +18°C° 0 mm 0 mps 704 mmHg 97%
    01:00 +18°C° 0 mm 0 mps 703 mmHg 96%
    02:00 +18°C° 0 mm 0 mps 703 mmHg 95%
    03:00 +18°C° 0 mm 0 mps 703 mmHg 95%
    04:00 +18°C° 0 mm 0 mps 703 mmHg 94%
    05:00 +18°C° 0 mm 0 mps 703 mmHg 93%
    06:00 +18°C° 0 mm 0 mps 704 mmHg 93%
    07:00 +20°C° 0 mm 0 mps 704 mmHg 85%
    08:00 +22°C° 0 mm 0 mps 705 mmHg 77%
    09:00 +23°C° 0 mm 0 mps 705 mmHg 69%
    10:00 +25°C° 0 mm 0 mps 705 mmHg 64%
    11:00 +28°C° 0 mm 1 mps 704 mmHg 58%
    12:00 +30°C° 0 mm 1 mps 704 mmHg 53%
    13:00 +29°C° 0 mm 1 mps 703 mmHg 55%
    14:00 +29°C° 0 mm 1 mps 703 mmHg 57%
    15:00 +29°C° 0 mm 2 mps 702 mmHg 59%
    16:00 +26°C° 0 mm 1 mps 702 mmHg 70%
    17:00 +24°C° 0 mm 1 mps 702 mmHg 82%
    18:00 +20°C° 0 mm 0 mps 702 mmHg 93%
    19:00 +20°C° 0 mm 0 mps 702 mmHg 95%
    20:00 +19°C° 0 mm 0 mps 703 mmHg 96%
    21:00 +19°C° 0 mm 0 mps 703 mmHg 97%
    22:00 +18°C° 0 mm 0 mps 703 mmHg 98%
    23:00 +18°C° 0 mm 0 mps 703 mmHg 98%

    22 November, Friday

    Time Temperature Precipitation Wind Pressure Humidity
    00:00 +18°C° 0 mm 0 mps 703 mmHg 98%
    01:00 +18°C° 0 mm 0 mps 702 mmHg 98%
    02:00 +18°C° 0 mm 0 mps 702 mmHg 97%
    03:00 +18°C° 0 mm 0 mps 702 mmHg 97%
    04:00 +18°C° 0 mm 0 mps 702 mmHg 97%
    05:00 +18°C° 0 mm 0 mps 702 mmHg 97%
    06:00 +17°C° 0 mm 0 mps 702 mmHg 96%
    07:00 +20°C° 0 mm 0 mps 703 mmHg 86%
    08:00 +23°C° 0 mm 0 mps 704 mmHg 77%
    09:00 +25°C° 0 mm 0 mps 704 mmHg 67%
    10:00 +27°C° 0 mm 0 mps 704 mmHg 60%
    11:00 +28°C° 0 mm 0 mps 704 mmHg 54%
    12:00 +32°C° 0 mm 1 mps 703 mmHg 47%
    13:00 +31°C° 0 mm 1 mps 703 mmHg 47%
    14:00 +31°C° 0 mm 1 mps 702 mmHg 48%
    15:00 +31°C° 0 mm 1 mps 701 mmHg 49%
    16:00 +28°C° 0 mm 1 mps 701 mmHg 61%
    17:00 +26°C° 0 mm 1 mps 701 mmHg 73%
    18:00 +21°C° 0 mm 0 mps 701 mmHg 86%
    19:00 +21°C° 0 mm 0 mps 701 mmHg 89%
    20:00 +20°C° 0 mm 0 mps 702 mmHg 92%
    21:00 +19°C° 0 mm 0 mps 702 mmHg 95%
    22:00 +19°C° 0 mm 0 mps 702 mmHg 95%
    23:00 +19°C° 0 mm 0 mps 702 mmHg 94%
    Show more